Location: ?????????
(54.7630°N, 39.4991°E)
Time: 22:13:30
(UTC+00:00)

Meteor 1-22 - Pass Details

Date: 14 April 2026
Orbit: 795 x 904 km, 81.3° (Epoch: 13 May)

Event Time Altitude Azimuth Distance (km) Brightness Sun altitude
Rises 22:15:24 0° 344° (NNW) 3,356 8.8 -24.6°
Reaches altitude 10° 22:17:50 10° 343° (NNW) 2,407 7.8 -24.5°
Maximum altitude 22:23:13 72° 260° (W) 846 4.5 -24.3°
Enters shadow 22:23:48 65° 217° (SW) 879 4.5 -24.3°
